Location: Praha
(50.0830°N, 14.4670°E)
Time: 00:28:50
(UTC+02:00)

ISS - Pass Details

Date: 29 October 2020
Orbit: 417 x 420 km, 51.6° (Epoch: 23 October)

Event Time Altitude Azimuth Distance (km) Brightness Sun altitude
Exits shadow 04:23:28 41° 110° (ESE) 619 -2.6 -23.5°
Drops below altitude 10° 04:26:01 10° 77° (ENE) 1,499 0.1 -23.1°
Sets 04:28:08 0° 73° (ENE) 2,365 1.4 -22.8°
